Time,TemperatureF,DewpointF,PressureIn,WindDirection,WindDirectionDegrees,WindSpeedMPH,WindSpeedGustMPH,Humidity,HourlyPrecipIn,Conditions,Clouds,dailyrainin,SolarRadiationWatts/m^2,SoftwareType,DateUTC
2013-03-25 00:00:00,38.1,32.5,29.79,WSW,238,5.0,6.0,80,0.00,,---,0.00,0.00,VWS V14.01,2013-03-25 04:00:00,
2013-03-25 00:05:00,38.0,32.4,29.79,WSW,253,4.0,6.0,80,0.00,,---,0.00,0.00,VWS V14.01,2013-03-25 04:05:00,
2013-03-25 00:10:00,38.0,33.0,29.79,West,271,3.0,6.0,82,0.00,,---,0.00,0.00,VWS V14.01,2013-03-25 04:10:00,
2013-03-25 00:15:00,37.9,33.2,29.78,WNW,290,2.0,6.0,83,0.00,,---,0.00,0.00,VWS V14.01,2013-03-25 04:15:00,
2013-03-25 00:20:00,37.7,33.0,29.78,WNW,282,3.0,3.0,83,0.00,,---,0.00,0.00,VWS V14.01,2013-03-25 04:20:00,
2013-03-25 00:25:00,37.4,33.0,29.78,WNW,294,2.0,3.0,84,0.00,,---,0.00,0.00,VWS V14.01,2013-03-25 04:25:00,
2013-03-25 00:30:00,37.2,32.8,29.78,WNW,284,3.0,4.0,84,0.00,,---,0.00,0.00,VWS V14.01,2013-03-25 04:30:00,
2013-03-25 00:35:00,37.0,32.6,29.78,WNW,286,1.0,3.0,84,0.00,,---,0.00,0.00,VWS V14.01,2013-03-25 04:35:00,
2013-03-25 00:40:00,36.9,32.5,29.78,WNW,288,2.0,4.0,84,0.00,,---,0.00,0.00,VWS V14.01,2013-03-25 04:40:00,
2013-03-25 00:45:00,36.8,32.4,29.78,NW,304,3.0,4.0,84,0.00,,---,0.00,0.00,VWS V14.01,2013-03-25 04:45:00,
2013-03-25 00:50:00,36.6,32.2,29.78,WNW,299,2.0,4.0,84,0.00,,---,0.00,0.00,VWS V14.01,2013-03-25 04:50:00,
2013-03-25 00:55:00,36.6,32.2,29.78,NW,308,2.0,4.0,84,0.00,,---,0.00,0.00,VWS V14.01,2013-03-25 04:55:00,
2013-03-25 01:00:00,36.6,32.2,29.77,WNW,297,2.0,4.0,84,0.00,,---,0.00,0.00,VWS V14.01,2013-03-25 05:00:00,
2013-03-25 01:05:00,36.6,32.2,29.77,WNW,295,2.0,4.0,84,0.00,,---,0.00,0.00,VWS V14.01,2013-03-25 05:05:00,
2013-03-25 01:10:00,36.4,32.0,29.77,NW,311,3.0,4.0,84,0.00,,---,0.00,0.00,VWS V14.01,2013-03-25 05:10:00,
2013-03-25 01:15:00,36.2,31.8,29.77,NNW,331,2.0,4.0,84,0.00,,---,0.00,0.00,VWS V14.01,2013-03-25 05:15:00,
2013-03-25 01:20:00,35.9,31.8,29.77,NNW,333,3.0,4.0,85,0.00,,---,0.00,0.00,VWS V14.01,2013-03-25 05:20:00,
2013-03-25 01:25:00,35.6,31.5,29.77,NW,322,4.0,4.0,85,0.00,,---,0.00,0.00,VWS V14.01,2013-03-25 05:25:00,
2013-03-25 01:30:00,35.3,31.2,29.77,NNW,327,3.0,4.0,85,0.00,,---,0.00,0.00,VWS V14.01,2013-03-25 05:30:00,
2013-03-25 01:35:00,35.1,31.0,29.77,NNW,329,3.0,4.0,85,0.00,,---,0.00,0.00,VWS V14.01,2013-03-25 05:35:00,
2013-03-25 01:40:00,35.1,31.3,29.77,NW,317,2.0,5.0,86,0.00,,---,0.00,0.00,VWS V14.01,2013-03-25 05:40:00,
2013-03-25 01:45:00,35.1,31.3,29.77,NW,320,3.0,5.0,86,0.00,,---,0.00,0.00,VWS V14.01,2013-03-25 05:45:00,
2013-03-25 01:50:00,35.1,31.3,29.77,NW,312,4.0,5.0,86,0.00,,---,0.00,0.00,VWS V14.01,2013-03-25 05:50:00,
2013-03-25 01:55:00,35.1,31.3,29.77,NW,320,3.0,5.0,86,0.00,,---,0.00,0.00,VWS V14.01,2013-03-25 05:55:00,
2013-03-25 02:00:00,35.0,31.2,29.77,NW,317,4.0,5.0,86,0.00,,---,0.00,0.00,VWS V14.01,2013-03-25 06:00:00,
2013-03-25 02:05:00,34.9,31.1,29.77,NW,320,4.0,5.0,86,0.00,,---,0.00,0.00,VWS V14.01,2013-03-25 06:05:00,
2013-03-25 02:10:00,34.8,31.0,29.76,NNW,329,2.0,6.0,86,0.00,,---,0.00,0.00,VWS V14.01,2013-03-25 06:10:00,
2013-03-25 02:15:00,34.8,31.0,29.76,NW,325,5.0,6.0,86,0.00,,---,0.00,0.00,VWS V14.01,2013-03-25 06:15:00,
2013-03-25 02:20:00,34.7,30.7,29.76,NW,319,3.0,5.0,85,0.00,,---,0.00,0.00,VWS V14.01,2013-03-25 06:20:00,
2013-03-25 02:25:00,34.7,30.7,29.76,NW,319,3.0,5.0,85,0.00,,---,0.00,0.00,VWS V14.01,2013-03-25 06:25:00,
2013-03-25 02:30:00,34.6,30.9,29.76,NNW,331,1.0,5.0,86,0.00,,---,0.00,0.00,VWS V14.01,2013-03-25 06:30:00,
2013-03-25 02:35:00,34.6,30.6,29.75,NNW,329,5.0,5.0,85,0.00,,---,0.00,0.00,VWS V14.01,2013-03-25 06:35:00,
2013-03-25 02:40:00,34.6,30.6,29.75,NNW,329,4.0,6.0,85,0.00,,---,0.00,0.00,VWS V14.01,2013-03-25 06:40:00,
2013-03-25 02:45:00,34.6,30.6,29.75,NNW,333,3.0,6.0,85,0.00,,---,0.00,0.00,VWS V14.01,2013-03-25 06:45:00,
2013-03-25 02:50:00,34.6,30.6,29.75,NNW,333,3.0,8.0,85,0.00,,---,0.00,0.00,VWS V14.01,2013-03-25 06:50:00,
2013-03-25 02:55:00,34.7,30.4,29.75,NNW,341,2.0,8.0,84,0.00,,---,0.00,0.00,VWS V14.01,2013-03-25 06:55:00,
2013-03-25 03:00:00,34.9,30.6,29.75,NNW,333,3.0,8.0,84,0.00,,---,0.00,0.00,VWS V14.01,2013-03-25 07:00:00,
2013-03-25 03:05:00,35.0,30.4,29.75,NNW,344,4.0,7.0,83,0.00,,---,0.00,0.00,VWS V14.01,2013-03-25 07:05:00,
2013-03-25 03:10:00,35.1,30.8,29.75,NNW,341,5.0,7.0,84,0.00,,---,0.00,0.00,VWS V14.01,2013-03-25 07:10:00,
2013-03-25 03:15:00,35.1,30.5,29.75,NNW,344,5.0,7.0,83,0.00,,---,0.00,0.00,VWS V14.01,2013-03-25 07:15:00,
2013-03-25 03:20:00,35.1,30.5,29.75,NNW,331,5.0,6.0,83,0.00,,---,0.00,0.00,VWS V14.01,2013-03-25 07:20:00,
2013-03-25 03:25:00,35.1,30.2,29.75,NNW,346,5.0,6.0,82,0.00,,---,0.00,0.00,VWS V14.01,2013-03-25 07:25:00,
2013-03-25 03:30:00,35.1,30.2,29.75,NNW,339,3.0,6.0,82,0.00,,---,0.00,0.00,VWS V14.01,2013-03-25 07:30:00,
2013-03-25 03:35:00,35.0,30.1,29.74,North,355,3.0,4.0,82,0.00,,---,0.00,0.00,VWS V14.01,2013-03-25 07:35:00,
2013-03-25 03:40:00,35.0,30.1,29.74,NNW,333,1.0,5.0,82,0.00,,---,0.00,0.00,VWS V14.01,2013-03-25 07:40:00,
2013-03-25 03:45:00,35.0,29.8,29.74,North,351,1.0,7.0,81,0.00,,---,0.00,0.00,VWS V14.01,2013-03-25 07:45:00,
2013-03-25 03:50:00,34.8,29.6,29.74,NNW,345,3.0,4.0,81,0.00,,---,0.00,0.00,VWS V14.01,2013-03-25 07:50:00,
2013-03-25 03:55:00,34.7,29.8,29.73,NNW,344,4.0,4.0,82,0.00,,---,0.00,0.00,VWS V14.01,2013-03-25 07:55:00,
2013-03-25 04:00:00,34.7,29.8,29.73,North,355,2.0,4.0,82,0.00,,---,0.00,0.00,VWS V14.01,2013-03-25 08:00:00,
2013-03-25 04:05:00,34.6,29.7,29.73,NNW,348,3.0,5.0,82,0.00,,---,0.00,0.00,VWS V14.01,2013-03-25 08:05:00,
2013-03-25 04:10:00,34.5,29.6,29.73,NW,321,6.0,8.0,82,0.00,,---,0.00,0.00,VWS V14.01,2013-03-25 08:10:00,
2013-03-25 04:15:00,34.5,29.6,29.73,NNW,346,4.0,8.0,82,0.00,,,0.00,0.00,VWS V14.01,2013-03-25 08:15:00,
2013-03-25 04:16:00,34.5,29.6,29.73,NW,325,4.0,8.0,82,0.00,,---,0.00,0.00,VWS V14.01,2013-03-25 08:16:00,
2013-03-25 04:21:00,34.6,29.4,29.73,NNW,342,7.0,7.0,81,0.00,,---,0.00,0.00,VWS V14.01,2013-03-25 08:21:00,
2013-03-25 04:26:00,34.7,29.5,29.73,North,355,7.0,9.0,81,0.00,,---,0.00,0.00,VWS V14.01,2013-03-25 08:26:00,
2013-03-25 04:30:00,34.7,29.5,29.72,North,11,9.0,9.0,81,0.00,,,0.00,0.00,VWS V14.01,2013-03-25 08:30:00,
2013-03-25 04:31:00,34.7,29.5,29.72,North,5,6.0,9.0,81,0.00,,---,0.00,0.00,VWS V14.01,2013-03-25 08:31:00,
2013-03-25 04:36:00,34.6,29.4,29.72,North,5,4.0,9.0,81,0.00,,---,0.00,0.00,VWS V14.01,2013-03-25 08:36:00,
2013-03-25 04:41:00,34.6,29.4,29.72,NNE,20,3.0,9.0,81,0.00,,---,0.00,0.00,VWS V14.01,2013-03-25 08:41:00,
2013-03-25 04:45:00,34.5,29.3,29.72,NNW,346,5.0,9.0,81,0.00,,,0.00,0.00,VWS V14.01,2013-03-25 08:45:00,
2013-03-25 04:46:00,34.5,29.3,29.72,North,360,4.0,9.0,81,0.00,,---,0.00,0.00,VWS V14.01,2013-03-25 08:46:00,
2013-03-25 04:51:00,34.5,29.3,29.72,North,355,3.0,7.0,81,0.00,,---,0.00,0.00,VWS V14.01,2013-03-25 08:51:00,
2013-03-25 04:56:00,34.5,29.3,29.72,North,9,3.0,7.0,81,0.00,,---,0.00,0.00,VWS V14.01,2013-03-25 08:56:00,
2013-03-25 05:00:00,34.7,29.8,29.73,North,355,2.0,4.0,82,0.00,,,0.00,0.00,VWS V14.01,2013-03-25 09:00:00,
2013-03-25 05:01:00,34.6,29.4,29.72,NNW,348,3.0,7.0,81,0.00,,---,0.00,0.00,VWS V14.01,2013-03-25 09:01:00,
2013-03-25 05:06:00,34.6,29.1,29.71,North,355,5.0,9.0,80,0.00,,---,0.00,0.00,VWS V14.01,2013-03-25 09:06:00,
2013-03-25 05:11:00,34.5,29.0,29.71,North,360,8.0,10.0,80,0.00,,---,0.00,0.00,VWS V14.01,2013-03-25 09:11:00,
2013-03-25 05:15:00,34.5,29.6,29.73,NNW,346,4.0,8.0,82,0.00,,,0.00,0.00,VWS V14.01,2013-03-25 09:15:00,
2013-03-25 05:16:00,34.4,28.9,29.71,North,355,5.0,5.0,80,0.00,,---,0.00,0.00,VWS V14.01,2013-03-25 09:16:00,
2013-03-25 05:21:00,34.4,28.9,29.71,North,350,5.0,7.0,80,0.00,,---,0.00,0.00,VWS V14.01,2013-03-25 09:21:00,
2013-03-25 05:26:00,34.4,28.9,29.70,NNE,21,7.0,7.0,80,0.00,,---,0.00,0.00,VWS V14.01,2013-03-25 09:26:00,
2013-03-25 05:30:00,34.5,29.0,29.70,NNE,12,6.0,8.0,80,0.00,,,0.00,0.00,VWS V14.01,2013-03-25 09:30:00,
2013-03-25 05:31:00,34.6,29.1,29.70,North,360,6.0,6.0,80,0.00,,---,0.00,0.00,VWS V14.01,2013-03-25 09:31:00,
2013-03-25 05:36:00,34.6,28.8,29.70,North,5,7.0,7.0,79,0.00,,---,0.00,0.00,VWS V14.01,2013-03-25 09:36:00,
2013-03-25 05:41:00,34.7,28.9,29.71,North,360,2.0,8.0,79,0.00,,---,0.00,0.00,VWS V14.01,2013-03-25 09:41:00,
2013-03-25 05:45:00,34.5,29.3,29.72,NNW,346,5.0,9.0,81,0.00,,,0.00,0.00,VWS V14.01,2013-03-25 09:45:00,
2013-03-25 05:46:00,34.8,29.0,29.70,North,355,5.0,8.0,79,0.00,,---,0.00,0.00,VWS V14.01,2013-03-25 09:46:00,
2013-03-25 05:52:00,34.8,29.0,29.71,NNW,348,2.0,8.0,79,0.00,,---,0.00,0.00,VWS V14.01,2013-03-25 09:52:00,
2013-03-25 05:57:00,34.9,29.4,29.71,NNW,335,3.0,8.0,80,0.00,,---,0.00,0.00,VWS V14.01,2013-03-25 09:57:00,
2013-03-25 06:00:00,35.0,29.5,29.71,NNE,16,3.0,8.0,80,0.00,,,0.00,0.00,VWS V14.01,2013-03-25 10:00:00,
2013-03-25 06:02:00,35.0,29.5,29.71,NNE,19,4.0,6.0,80,0.00,,---,0.00,0.00,VWS V14.01,2013-03-25 10:02:00,
2013-03-25 06:07:00,35.2,29.7,29.71,North,349,4.0,6.0,80,0.00,,---,0.00,0.00,VWS V14.01,2013-03-25 10:07:00,
2013-03-25 06:12:00,35.3,30.1,29.71,NNE,12,4.0,9.0,81,0.00,,---,0.00,0.00,VWS V14.01,2013-03-25 10:12:00,
2013-03-25 06:15:00,34.4,28.9,29.71,North,5,4.0,10.0,80,0.00,,,0.00,0.00,VWS V14.01,2013-03-25 10:15:00,
2013-03-25 06:17:00,35.3,30.1,29.70,NNE,19,8.0,9.0,81,0.00,,---,0.00,0.00,VWS V14.01,2013-03-25 10:17:00,
2013-03-25 06:22:00,35.3,30.4,29.70,NNE,13,9.0,9.0,82,0.00,,---,0.00,0.00,VWS V14.01,2013-03-25 10:22:00,
2013-03-25 06:27:00,35.2,30.3,29.70,North,5,8.0,10.0,82,0.00,,---,0.00,0.00,VWS V14.01,2013-03-25 10:27:00,
2013-03-25 06:30:00,34.5,29.0,29.70,NNE,12,6.0,8.0,80,0.00,,,0.00,0.00,VWS V14.01,2013-03-25 10:30:00,
2013-03-25 06:32:00,35.2,30.6,29.70,NNE,20,8.0,8.0,83,0.00,,---,0.00,0.00,VWS V14.01,2013-03-25 10:32:00,
2013-03-25 06:37:00,35.1,30.5,29.70,NNE,19,3.0,11.0,83,0.00,,---,0.00,0.00,VWS V14.01,2013-03-25 10:37:00,
2013-03-25 06:42:00,35.1,30.8,29.70,NNE,16,6.0,11.0,84,0.00,,---,0.00,5.00,VWS V14.01,2013-03-25 10:42:00,
2013-03-25 06:45:00,34.8,29.0,29.70,North,355,5.0,8.0,79,0.00,,,0.00,0.00,VWS V14.01,2013-03-25 10:45:00,
2013-03-25 06:47:00,35.1,30.8,29.70,NNE,27,9.0,10.0,84,0.00,,---,0.00,7.00,VWS V14.01,2013-03-25 10:47:00,
2013-03-25 06:52:00,35.2,30.9,29.70,NNE,18,7.0,10.0,84,0.00,,---,0.00,11.00,VWS V14.01,2013-03-25 10:52:00,
2013-03-25 06:57:00,35.2,31.1,29.70,North,360,7.0,10.0,85,0.00,,---,0.00,16.00,VWS V14.01,2013-03-25 10:57:00,
2013-03-25 07:00:00,35.0,29.5,29.71,NNE,16,3.0,8.0,80,0.00,,,0.00,0.00,VWS V14.01,2013-03-25 11:00:00,
2013-03-25 07:02:00,35.3,31.2,29.70,NNE,32,7.0,8.0,85,0.00,,---,0.00,25.00,VWS V14.01,2013-03-25 11:02:00,
2013-03-25 07:07:00,35.3,31.5,29.69,NNE,12,7.0,10.0,86,0.00,,---,0.00,33.00,VWS V14.01,2013-03-25 11:07:00,
2013-03-25 07:12:00,35.4,31.6,29.69,NE,44,5.0,10.0,86,0.00,,---,0.00,44.00,VWS V14.01,2013-03-25 11:12:00,
2013-03-25 07:15:00,35.4,31.6,29.69,North,355,6.0,10.0,86,0.00,,,0.00,51.00,VWS V14.01,2013-03-25 11:15:00,
2013-03-25 07:17:00,35.5,32.0,29.69,NNE,17,4.0,6.0,87,0.00,,---,0.00,58.00,VWS V14.01,2013-03-25 11:17:00,
2013-03-25 07:22:00,35.6,32.1,29.70,NE,55,6.0,9.0,87,0.00,,---,0.00,81.00,VWS V14.01,2013-03-25 11:22:00,
2013-03-25 07:27:00,35.9,32.4,29.70,North,355,5.0,9.0,87,0.00,,---,0.00,125.00,VWS V14.01,2013-03-25 11:27:00,
2013-03-25 07:30:00,36.0,32.5,29.70,NE,41,6.0,10.0,87,0.00,,,0.00,125.00,VWS V14.01,2013-03-25 11:30:00,
2013-03-25 07:32:00,36.1,32.6,29.70,North,5,5.0,8.0,87,0.00,,---,0.00,125.00,VWS V14.01,2013-03-25 11:32:00,
2013-03-25 07:37:00,36.3,32.5,29.70,NNE,17,4.0,10.0,86,0.00,,---,0.00,104.00,VWS V14.01,2013-03-25 11:37:00,
2013-03-25 07:42:00,36.3,32.8,29.70,North,5,8.0,10.0,87,0.00,,---,0.00,107.00,VWS V14.01,2013-03-25 11:42:00,
2013-03-25 07:45:00,35.1,30.8,29.70,North,5,6.0,11.0,84,0.00,,,0.00,7.00,VWS V14.01,2013-03-25 11:45:00,
2013-03-25 07:48:00,36.3,32.8,29.70,North,5,3.0,7.0,87,0.00,,---,0.00,121.00,VWS V14.01,2013-03-25 11:48:00,
2013-03-25 07:53:00,36.4,32.9,29.70,NNE,19,7.0,12.0,87,0.00,,---,0.00,144.00,VWS V14.01,2013-03-25 11:53:00,
2013-03-25 07:58:00,36.6,33.1,29.70,North,11,8.0,12.0,87,0.00,,---,0.00,158.00,VWS V14.01,2013-03-25 11:58:00,
2013-03-25 08:00:00,35.3,31.2,29.70,North,10,5.0,10.0,85,0.00,,,0.00,23.00,VWS V14.01,2013-03-25 12:00:00,
2013-03-25 08:03:00,37.0,33.5,29.70,NNE,24,8.0,10.0,87,0.00,,---,0.00,181.00,VWS V14.01,2013-03-25 12:03:00,
2013-03-25 08:08:00,37.2,33.4,29.70,NE,50,4.0,10.0,86,0.00,,---,0.00,158.00,VWS V14.01,2013-03-25 12:08:00,
2013-03-25 08:13:00,37.4,33.6,29.70,NE,45,6.0,10.0,86,0.00,,---,0.00,174.00,VWS V14.01,2013-03-25 12:13:00,
2013-03-25 08:15:00,37.6,33.8,29.70,NE,54,5.0,10.0,86,0.00,,,0.00,167.00,VWS V14.01,2013-03-25 12:15:00,
2013-03-25 08:18:00,37.8,34.0,29.70,NE,47,6.0,8.0,86,0.00,,---,0.00,167.00,VWS V14.01,2013-03-25 12:18:00,
2013-03-25 08:23:00,38.0,34.2,29.70,NNE,19,8.0,10.0,86,0.00,,---,0.00,169.00,VWS V14.01,2013-03-25 12:23:00,
2013-03-25 08:28:00,38.2,34.4,29.70,NNE,27,7.0,10.0,86,0.00,,---,0.00,169.00,VWS V14.01,2013-03-25 12:28:00,
2013-03-25 08:30:00,38.3,34.2,29.70,NNE,19,4.0,10.0,85,0.00,,,0.00,176.00,VWS V14.01,2013-03-25 12:30:00,
2013-03-25 08:33:00,38.4,34.3,29.70,NE,56,7.0,8.0,85,0.00,,---,0.00,176.00,VWS V14.01,2013-03-25 12:33:00,
2013-03-25 08:38:00,38.6,34.5,29.70,North,350,7.0,10.0,85,0.00,,---,0.00,192.00,VWS V14.01,2013-03-25 12:38:00,
2013-03-25 08:43:00,38.9,34.8,29.70,NE,52,7.0,12.0,85,0.00,,---,0.00,260.00,VWS V14.01,2013-03-25 12:43:00,
2013-03-25 08:45:00,39.1,35.0,29.70,NNE,29,5.0,12.0,85,0.00,,,0.00,250.00,VWS V14.01,2013-03-25 12:45:00,
2013-03-25 08:48:00,39.2,35.1,29.70,NNE,15,2.0,10.0,85,0.00,,---,0.00,241.00,VWS V14.01,2013-03-25 12:48:00,
2013-03-25 08:53:00,39.3,34.9,29.69,NE,46,8.0,12.0,84,0.00,,---,0.00,244.00,VWS V14.01,2013-03-25 12:53:00,
2013-03-25 08:58:00,39.3,34.9,29.69,NE,40,7.0,12.0,84,0.00,,---,0.00,244.00,VWS V14.01,2013-03-25 12:58:00,
2013-03-25 09:00:00,36.9,33.4,29.70,NNE,12,6.0,12.0,87,0.00,,,0.00,181.00,VWS V14.01,2013-03-25 13:00:00,
2013-03-25 09:03:00,39.2,34.8,29.69,NNE,29,6.0,12.0,84,0.00,,---,0.00,306.00,VWS V14.01,2013-03-25 13:03:00,
2013-03-25 09:08:00,39.4,35.0,29.68,NNE,18,10.0,12.0,84,0.00,,---,0.00,262.00,VWS V14.01,2013-03-25 13:08:00,
2013-03-25 09:13:00,39.5,35.1,29.68,NE,39,11.0,12.0,84,0.00,,---,0.00,315.00,VWS V14.01,2013-03-25 13:13:00,
2013-03-25 09:15:00,37.6,33.8,29.70,NE,54,5.0,10.0,86,0.00,,,0.00,167.00,VWS V14.01,2013-03-25 13:15:00,
2013-03-25 09:18:00,39.7,35.3,29.68,NE,46,5.0,10.0,84,0.00,,---,0.00,306.00,VWS V14.01,2013-03-25 13:18:00,
2013-03-25 09:23:00,39.9,35.5,29.68,North,351,7.0,13.0,84,0.00,,---,0.00,246.00,VWS V14.01,2013-03-25 13:23:00,
2013-03-25 09:28:00,40.0,35.3,29.67,NE,34,10.0,13.0,83,0.00,,---,0.00,250.00,VWS V14.01,2013-03-25 13:28:00,
2013-03-25 09:30:00,38.3,34.2,29.70,NNE,19,4.0,10.0,85,0.00,,,0.00,176.00,VWS V14.01,2013-03-25 13:30:00,
2013-03-25 09:33:00,40.1,35.4,29.67,NNE,13,9.0,12.0,83,0.00,,---,0.00,272.00,VWS V14.01,2013-03-25 13:33:00,
2013-03-25 09:38:00,40.2,35.5,29.67,NE,56,8.0,12.0,83,0.00,,---,0.00,359.00,VWS V14.01,2013-03-25 13:38:00,
2013-03-25 09:43:00,40.6,35.8,29.66,NE,53,10.0,12.0,83,0.00,,---,0.00,420.00,VWS V14.01,2013-03-25 13:43:00,
2013-03-25 09:45:00,40.7,36.0,29.66,NNE,31,2.0,12.0,83,0.00,,,0.00,429.00,VWS V14.01,2013-03-25 13:45:00,
2013-03-25 09:48:00,41.0,35.9,29.66,NNE,30,13.0,13.0,82,0.00,,---,0.00,353.00,VWS V14.01,2013-03-25 13:48:00,
2013-03-25 09:53:00,41.1,35.7,29.66,NE,41,10.0,15.0,81,0.00,,---,0.00,322.00,VWS V14.01,2013-03-25 13:53:00,
2013-03-25 09:58:00,41.4,35.4,29.66,NE,51,12.0,18.0,79,0.00,,---,0.00,339.00,VWS V14.01,2013-03-25 13:58:00,
2013-03-25 10:00:00,39.2,34.8,29.69,NE,36,4.0,12.0,84,0.00,,,0.00,251.00,VWS V14.01,2013-03-25 14:00:00,
2013-03-25 10:03:00,41.6,35.3,29.66,NE,55,12.0,15.0,78,0.00,,---,0.00,309.00,VWS V14.01,2013-03-25 14:03:00,
2013-03-25 10:08:00,41.8,34.8,29.66,NE,49,15.0,15.0,76,0.00,,---,0.00,313.00,VWS V14.01,2013-03-25 14:08:00,
2013-03-25 10:13:00,41.8,34.5,29.66,NE,45,10.0,18.0,75,0.00,,---,0.00,315.00,VWS V14.01,2013-03-25 14:13:00,
2013-03-25 10:15:00,39.6,35.2,29.68,NE,50,10.0,12.0,84,0.00,,,0.00,341.00,VWS V14.01,2013-03-25 14:15:00,
2013-03-25 10:18:00,41.9,34.2,29.65,NE,55,13.0,13.0,74,0.00,,---,0.00,345.00,VWS V14.01,2013-03-25 14:18:00,
2013-03-25 10:23:00,42.0,34.0,29.65,ENE,64,11.0,14.0,73,0.00,,---,0.00,381.00,VWS V14.01,2013-03-25 14:23:00,
2013-03-25 10:28:00,42.2,33.5,29.65,NE,50,4.0,14.0,71,0.00,,---,0.00,385.00,VWS V14.01,2013-03-25 14:28:00,
2013-03-25 10:30:00,40.0,35.3,29.67,NE,34,4.0,13.0,83,0.00,,,0.00,257.00,VWS V14.01,2013-03-25 14:30:00,
2013-03-25 10:33:00,42.7,32.9,29.65,NE,48,10.0,15.0,68,0.00,,---,0.00,446.00,VWS V14.01,2013-03-25 14:33:00,
2013-03-25 10:38:00,42.9,33.4,29.65,NE,40,19.0,19.0,69,0.00,,---,0.00,642.00,VWS V14.01,2013-03-25 14:38:00,
2013-03-25 10:43:00,43.1,33.3,29.65,NE,48,8.0,20.0,68,0.00,,---,0.00,533.00,VWS V14.01,2013-03-25 14:43:00,
2013-03-25 10:45:00,40.7,36.0,29.66,NNE,31,2.0,12.0,83,0.00,,,0.00,429.00,VWS V14.01,2013-03-25 14:45:00,
2013-03-25 10:48:00,43.1,32.9,29.65,NE,42,13.0,16.0,67,0.00,,---,0.00,649.00,VWS V14.01,2013-03-25 14:48:00,
2013-03-25 10:53:00,43.3,33.1,29.65,ENE,68,12.0,17.0,67,0.00,,---,0.00,615.00,VWS V14.01,2013-03-25 14:53:00,
2013-03-25 10:58:00,43.2,32.2,29.65,NE,49,7.0,18.0,65,0.00,,---,0.00,271.00,VWS V14.01,2013-03-25 14:58:00,
2013-03-25 11:00:00,43.0,32.4,29.66,NNE,30,13.0,18.0,66,0.00,,,0.00,269.00,VWS V14.01,2013-03-25 15:00:00,
2013-03-25 11:03:00,42.7,32.9,29.66,NE,47,8.0,18.0,68,0.00,,---,0.00,285.00,VWS V14.01,2013-03-25 15:03:00,
2013-03-25 11:08:00,42.5,32.0,29.66,NE,49,14.0,18.0,66,0.00,,---,0.00,309.00,VWS V14.01,2013-03-25 15:08:00,
2013-03-25 11:13:00,42.7,32.2,29.65,ENE,66,10.0,18.0,66,0.00,,---,0.00,281.00,VWS V14.01,2013-03-25 15:13:00,
2013-03-25 11:15:00,41.9,34.2,29.65,NE,46,11.0,18.0,74,0.00,,,0.00,346.00,VWS V14.01,2013-03-25 15:15:00,
2013-03-25 11:18:00,42.7,31.8,29.65,NE,38,13.0,15.0,65,0.00,,---,0.00,260.00,VWS V14.01,2013-03-25 15:18:00,
2013-03-25 11:24:00,42.8,32.2,29.65,NNE,19,8.0,19.0,66,0.00,,---,0.00,341.00,VWS V14.01,2013-03-25 15:24:00,
2013-03-25 11:29:00,42.7,32.2,29.65,NE,47,16.0,19.0,66,0.00,,---,0.00,223.00,VWS V14.01,2013-03-25 15:29:00,
2013-03-25 11:30:00,42.5,32.3,29.65,NE,44,11.0,19.0,67,0.00,,,0.00,199.00,VWS V14.01,2013-03-25 15:30:00,
2013-03-25 11:34:00,42.4,32.2,29.65,NE,44,11.0,17.0,67,0.00,,---,0.00,174.00,VWS V14.01,2013-03-25 15:34:00,
2013-03-25 11:39:00,42.4,31.5,29.65,East,84,7.0,17.0,65,0.00,,---,0.00,197.00,VWS V14.01,2013-03-25 15:39:00,
2013-03-25 11:44:00,42.3,31.4,29.64,NE,46,13.0,18.0,65,0.00,,---,0.00,179.00,VWS V14.01,2013-03-25 15:44:00,
2013-03-25 11:45:00,43.1,32.9,29.65,NE,41,10.0,20.0,67,0.00,,,0.00,348.00,VWS V14.01,2013-03-25 15:45:00,
2013-03-25 11:49:00,42.3,30.6,29.64,NE,37,9.0,18.0,63,0.00,,---,0.00,206.00,VWS V14.01,2013-03-25 15:49:00,
2013-03-25 11:54:00,42.5,30.8,29.64,NNE,29,15.0,21.0,63,0.00,,---,0.00,202.00,VWS V14.01,2013-03-25 15:54:00,
2013-03-25 11:59:00,42.4,30.3,29.63,NE,43,13.0,21.0,62,0.00,,---,0.00,178.00,VWS V14.01,2013-03-25 15:59:00,
2013-03-25 12:00:00,43.0,32.4,29.66,NNE,30,13.0,18.0,66,0.00,,,0.00,269.00,VWS V14.01,2013-03-25 16:00:00,
2013-03-25 12:04:00,42.7,31.0,29.63,NE,47,17.0,17.0,63,0.00,,---,0.00,241.00,VWS V14.01,2013-03-25 16:04:00,
2013-03-25 12:09:00,42.7,31.4,29.62,NNE,23,8.0,17.0,64,0.00,,---,0.00,306.00,VWS V14.01,2013-03-25 16:09:00,
2013-03-25 12:14:00,42.6,30.5,29.62,NNE,31,8.0,18.0,62,0.00,,---,0.00,236.00,VWS V14.01,2013-03-25 16:14:00,
2013-03-25 12:15:00,42.7,30.6,29.62,NE,38,18.0,18.0,62,0.00,,,0.00,241.00,VWS V14.01,2013-03-25 16:15:00,
2013-03-25 12:19:00,42.6,30.5,29.61,NE,34,11.0,19.0,62,0.00,,---,0.00,253.00,VWS V14.01,2013-03-25 16:19:00,
2013-03-25 12:24:00,42.6,30.9,29.61,NE,49,12.0,19.0,63,0.00,,---,0.00,445.00,VWS V14.01,2013-03-25 16:24:00,
2013-03-25 12:29:00,42.7,30.6,29.61,NE,42,7.0,19.0,62,0.00,,---,0.00,294.00,VWS V14.01,2013-03-25 16:29:00,
2013-03-25 12:30:00,42.7,30.6,29.61,NE,53,16.0,20.0,62,0.00,,,0.00,380.00,VWS V14.01,2013-03-25 16:30:00,
2013-03-25 12:34:00,42.7,30.2,29.61,NNE,32,17.0,23.0,61,0.00,,---,0.00,420.00,VWS V14.01,2013-03-25 16:34:00,
2013-03-25 12:39:00,43.2,30.7,29.61,NNE,23,8.0,23.0,61,0.00,,---,0.00,819.00,VWS V14.01,2013-03-25 16:39:00,
2013-03-25 12:44:00,43.3,30.0,29.61,NE,46,10.0,23.0,59,0.00,,---,0.00,276.00,VWS V14.01,2013-03-25 16:44:00,
2013-03-25 12:45:00,43.1,29.8,29.60,NE,53,19.0,23.0,59,0.00,,,0.00,237.00,VWS V14.01,2013-03-25 16:45:00,
2013-03-25 12:49:00,42.7,29.8,29.60,ENE,59,8.0,24.0,60,0.00,,---,0.00,297.00,VWS V14.01,2013-03-25 16:49:00,
2013-03-25 12:54:00,42.7,31.0,29.60,NE,55,18.0,24.0,63,0.00,,---,0.00,306.00,VWS V14.01,2013-03-25 16:54:00,
2013-03-25 12:59:00,42.7,31.0,29.61,NE,39,17.0,24.0,63,0.00,,---,0.00,295.00,VWS V14.01,2013-03-25 16:59:00,
2013-03-25 13:00:00,42.7,31.0,29.60,ENE,57,12.0,24.0,63,0.00,,,0.00,322.00,VWS V14.01,2013-03-25 17:00:00,
2013-03-25 13:04:00,42.6,31.3,29.60,ENE,64,13.0,22.0,64,0.00,,---,0.00,338.00,VWS V14.01,2013-03-25 17:04:00,
2013-03-25 13:09:00,42.6,30.9,29.60,NE,53,17.0,22.0,63,0.00,,---,0.00,341.00,VWS V14.01,2013-03-25 17:09:00,
2013-03-25 13:14:00,42.6,30.5,29.60,NE,37,17.0,22.0,62,0.00,,---,0.00,325.00,VWS V14.01,2013-03-25 17:14:00,
2013-03-25 13:15:00,42.5,30.4,29.60,NE,46,14.0,22.0,62,0.00,,,0.00,341.00,VWS V14.01,2013-03-25 17:15:00,
2013-03-25 13:19:00,42.6,30.5,29.60,NE,34,14.0,20.0,62,0.00,,---,0.00,346.00,VWS V14.01,2013-03-25 17:19:00,
2013-03-25 13:24:00,42.7,31.4,29.60,NE,34,14.0,20.0,64,0.00,,---,0.00,364.00,VWS V14.01,2013-03-25 17:24:00,
2013-03-25 13:29:00,42.6,29.3,29.60,NNE,13,10.0,24.0,59,0.00,,---,0.00,330.00,VWS V14.01,2013-03-25 17:29:00,
2013-03-25 13:30:00,42.5,29.6,29.60,ENE,60,18.0,24.0,60,0.00,,,0.00,327.00,VWS V14.01,2013-03-25 17:30:00,
2013-03-25 13:34:00,42.6,30.9,29.60,NE,46,19.0,19.0,63,0.00,,---,0.00,334.00,VWS V14.01,2013-03-25 17:34:00,
2013-03-25 13:39:00,42.6,30.1,29.59,ENE,76,11.0,26.0,61,0.00,,---,0.00,323.00,VWS V14.01,2013-03-25 17:39:00,
2013-03-25 13:44:00,42.5,29.2,29.59,ENE,59,16.0,26.0,59,0.00,,---,0.00,316.00,VWS V14.01,2013-03-25 17:44:00,
2013-03-25 13:45:00,43.1,29.8,29.60,NE,53,19.0,23.0,59,0.00,,,0.00,237.00,VWS V14.01,2013-03-25 17:45:00,
2013-03-25 13:49:00,42.3,29.4,29.59,NE,46,21.0,26.0,60,0.00,,---,0.00,325.00,VWS V14.01,2013-03-25 17:49:00,
2013-03-25 13:54:00,42.3,28.6,29.59,NE,50,24.0,26.0,58,0.00,,---,0.00,332.00,VWS V14.01,2013-03-25 17:54:00,
2013-03-25 13:59:00,42.2,28.5,29.58,NE,53,12.0,26.0,58,0.00,,---,0.00,327.00,VWS V14.01,2013-03-25 17:59:00,
2013-03-25 14:00:00,42.7,31.0,29.60,ENE,57,12.0,24.0,63,0.00,,,0.00,322.00,VWS V14.01,2013-03-25 18:00:00,
2013-03-25 14:04:00,42.3,28.6,29.58,NNE,27,17.0,24.0,58,0.00,,---,0.00,325.00,VWS V14.01,2013-03-25 18:04:00,
2013-03-25 14:09:00,42.2,28.9,29.57,NNE,24,15.0,26.0,59,0.00,,---,0.00,308.00,VWS V14.01,2013-03-25 18:09:00,
2013-03-25 14:14:00,42.0,28.3,29.57,NNE,30,17.0,30.0,58,0.00,,---,0.00,294.00,VWS V14.01,2013-03-25 18:14:00,
2013-03-25 14:15:00,42.5,30.4,29.60,NE,46,14.0,22.0,62,0.00,,,0.00,341.00,VWS V14.01,2013-03-25 18:15:00,
2013-03-25 14:19:00,41.9,28.6,29.56,NE,52,10.0,26.0,59,0.00,,---,0.00,283.00,VWS V14.01,2013-03-25 18:19:00,
2013-03-25 14:24:00,41.9,29.9,29.56,NNE,19,14.0,26.0,62,0.00,,---,0.00,276.00,VWS V14.01,2013-03-25 18:24:00,
2013-03-25 14:29:00,41.8,29.8,29.55,NE,51,18.0,27.0,62,0.00,,---,0.00,281.00,VWS V14.01,2013-03-25 18:29:00,
2013-03-25 14:30:00,42.5,29.6,29.60,ENE,60,18.0,24.0,60,0.00,,,0.00,327.00,VWS V14.01,2013-03-25 18:30:00,
2013-03-25 14:34:00,41.6,30.3,29.54,NE,42,14.0,28.0,64,0.00,,---,0.00,290.00,VWS V14.01,2013-03-25 18:34:00,
2013-03-25 14:39:00,41.5,30.2,29.54,NE,38,16.0,28.0,64,0.00,,---,0.00,295.00,VWS V14.01,2013-03-25 18:39:00,
2013-03-25 14:44:00,41.5,31.0,29.53,ENE,69,14.0,28.0,66,0.00,,---,0.00,295.00,VWS V14.01,2013-03-25 18:44:00,
2013-03-25 14:45:00,41.4,30.5,29.53,NE,41,23.0,28.0,65,0.00,,,0.00,297.00,VWS V14.01,2013-03-25 18:45:00,
2013-03-25 14:49:00,41.4,30.1,29.52,NE,40,22.0,28.0,64,0.00,,---,0.00,292.00,VWS V14.01,2013-03-25 18:49:00,
2013-03-25 14:54:00,41.3,30.4,29.52,NE,50,23.0,28.0,65,0.00,,---,0.00,253.00,VWS V14.01,2013-03-25 18:54:00,
2013-03-25 14:59:00,41.1,30.6,29.51,NE,54,17.0,28.0,66,0.00,,---,0.00,258.00,VWS V14.01,2013-03-25 18:59:00,
2013-03-25 15:00:00,42.2,28.1,29.58,ENE,58,15.0,26.0,57,0.00,,,0.00,329.00,VWS V14.01,2013-03-25 19:00:00,
2013-03-25 15:04:00,41.1,30.2,29.50,NE,40,21.0,32.0,65,0.00,,---,0.00,264.00,VWS V14.01,2013-03-25 19:04:00,
2013-03-25 15:10:00,41.0,30.5,29.49,NE,44,14.0,33.0,66,0.00,,---,0.00,260.00,VWS V14.01,2013-03-25 19:10:00,
2013-03-25 15:15:00,40.9,30.4,29.49,NE,51,20.0,35.0,66,0.00,,---,0.00,285.00,VWS V14.01,2013-03-25 19:15:00,
2013-03-25 15:20:00,40.8,30.7,29.49,NNE,26,25.0,34.0,67,0.00,,---,0.00,260.00,VWS V14.01,2013-03-25 19:20:00,
2013-03-25 15:25:00,40.7,31.7,29.50,NNE,27,15.0,34.0,70,0.00,,---,0.00,250.00,VWS V14.01,2013-03-25 19:25:00,
2013-03-25 15:30:00,40.7,30.6,29.50,NE,43,17.0,34.0,67,0.00,,---,0.00,200.00,VWS V14.01,2013-03-25 19:30:00,
2013-03-25 15:35:00,40.7,31.3,29.50,NE,41,22.0,27.0,69,0.00,,---,0.00,185.00,VWS V14.01,2013-03-25 19:35:00,
2013-03-25 15:40:00,40.5,30.0,29.49,NE,38,20.0,29.0,66,0.00,,---,0.00,163.00,VWS V14.01,2013-03-25 19:40:00,
2013-03-25 15:45:00,40.4,30.3,29.49,NE,49,32.0,32.0,67,0.00,,---,0.00,139.00,VWS V14.01,2013-03-25 19:45:00,
2013-03-25 15:50:00,40.4,31.8,29.50,NNE,17,17.0,29.0,71,0.00,,---,0.00,125.00,VWS V14.01,2013-03-25 19:50:00,
2013-03-25 15:55:00,40.3,31.7,29.50,NE,51,21.0,29.0,71,0.00,,---,0.00,105.00,VWS V14.01,2013-03-25 19:55:00,
2013-03-25 16:00:00,40.2,30.5,29.50,NNE,24,18.0,29.0,68,0.00,,---,0.00,102.00,VWS V14.01,2013-03-25 20:00:00,
2013-03-25 16:05:00,40.2,30.9,29.49,NE,55,22.0,27.0,69,0.00,,---,0.00,93.00,VWS V14.01,2013-03-25 20:05:00,
2013-03-25 16:10:00,40.2,30.5,29.49,NNE,28,20.0,27.0,68,0.00,,---,0.00,93.00,VWS V14.01,2013-03-25 20:10:00,
2013-03-25 16:15:00,40.1,30.8,29.49,NE,40,20.0,29.0,69,0.00,,---,0.00,84.00,VWS V14.01,2013-03-25 20:15:00,
2013-03-25 16:20:00,40.1,30.4,29.49,NE,36,17.0,31.0,68,0.00,,---,0.00,84.00,VWS V14.01,2013-03-25 20:20:00,
2013-03-25 16:25:00,40.1,30.8,29.49,NE,48,12.0,31.0,69,0.00,,---,0.00,88.00,VWS V14.01,2013-03-25 20:25:00,
2013-03-25 16:30:00,40.1,30.8,29.49,NE,52,23.0,31.0,69,0.00,,---,0.00,81.00,VWS V14.01,2013-03-25 20:30:00,
2013-03-25 16:35:00,40.0,30.3,29.49,North,10,22.0,31.0,68,0.00,,---,0.00,84.00,VWS V14.01,2013-03-25 20:35:00,
2013-03-25 16:40:00,40.0,31.0,29.49,NE,55,27.0,31.0,70,0.00,,---,0.00,74.00,VWS V14.01,2013-03-25 20:40:00,
2013-03-25 16:45:00,40.0,30.7,29.49,NE,40,19.0,31.0,69,0.00,,---,0.00,69.00,VWS V14.01,2013-03-25 20:45:00,
2013-03-25 16:50:00,39.9,30.6,29.49,NE,40,12.0,29.0,69,0.00,,---,0.00,63.00,VWS V14.01,2013-03-25 20:50:00,
2013-03-25 16:55:00,39.9,31.3,29.49,NNE,26,11.0,29.0,71,0.00,,---,0.00,58.00,VWS V14.01,2013-03-25 20:55:00,
2013-03-25 17:00:00,39.8,30.8,29.49,NE,35,26.0,29.0,70,0.00,,---,0.00,56.00,VWS V14.01,2013-03-25 21:00:00,
2013-03-25 17:05:00,39.8,30.5,29.49,NNE,32,26.0,27.0,69,0.00,,---,0.00,53.00,VWS V14.01,2013-03-25 21:05:00,
2013-03-25 17:10:00,39.8,30.5,29.49,NE,44,26.0,28.0,69,0.00,,---,0.00,54.00,VWS V14.01,2013-03-25 21:10:00,
2013-03-25 17:15:00,39.8,30.1,29.49,ENE,61,13.0,29.0,68,0.00,,---,0.00,51.00,VWS V14.01,2013-03-25 21:15:00,
2013-03-25 17:20:00,39.8,30.5,29.49,NE,47,23.0,31.0,69,0.00,,---,0.00,46.00,VWS V14.01,2013-03-25 21:20:00,
2013-03-25 17:25:00,39.8,30.5,29.49,NNE,29,21.0,31.0,69,0.00,,---,0.00,47.00,VWS V14.01,2013-03-25 21:25:00,
2013-03-25 17:30:00,39.8,30.1,29.49,NNE,30,20.0,34.0,68,0.00,,---,0.00,44.00,VWS V14.01,2013-03-25 21:30:00,
2013-03-25 17:35:00,39.8,30.8,29.49,NNE,27,19.0,25.0,70,0.00,,---,0.00,37.00,VWS V14.01,2013-03-25 21:35:00,
2013-03-25 17:40:00,39.7,31.4,29.49,NE,45,17.0,25.0,72,0.00,,---,0.00,35.00,VWS V14.01,2013-03-25 21:40:00,
2013-03-25 17:45:00,39.7,30.7,29.50,NNE,28,14.0,27.0,70,0.00,,---,0.00,39.00,VWS V14.01,2013-03-25 21:45:00,
2013-03-25 17:50:00,39.7,31.4,29.49,NE,40,13.0,29.0,72,0.00,,---,0.00,30.00,VWS V14.01,2013-03-25 21:50:00,
2013-03-25 17:55:00,39.7,31.4,29.49,NNE,28,15.0,29.0,72,0.00,,---,0.00,32.00,VWS V14.01,2013-03-25 21:55:00,
2013-03-25 18:00:00,39.6,30.6,29.49,NE,52,11.0,29.0,70,0.00,,---,0.00,28.00,VWS V14.01,2013-03-25 22:00:00,
2013-03-25 18:05:00,39.7,31.1,29.49,ENE,67,14.0,25.0,71,0.00,,---,0.00,25.00,VWS V14.01,2013-03-25 22:05:00,
2013-03-25 18:10:00,39.6,31.0,29.49,NE,44,10.0,25.0,71,0.00,,---,0.00,23.00,VWS V14.01,2013-03-25 22:10:00,
2013-03-25 18:15:00,39.6,31.7,29.49,NE,44,18.0,25.0,73,0.00,,---,0.00,16.00,VWS V14.01,2013-03-25 22:15:00,
2013-03-25 18:20:00,39.5,31.6,29.49,North,355,15.0,25.0,73,0.00,,---,0.00,14.00,VWS V14.01,2013-03-25 22:20:00,
2013-03-25 18:25:00,39.5,31.6,29.49,North,5,10.0,25.0,73,0.00,,---,0.00,11.00,VWS V14.01,2013-03-25 22:25:00,
2013-03-25 18:30:00,39.5,31.2,29.49,ENE,58,14.0,29.0,72,0.00,,---,0.00,9.00,VWS V14.01,2013-03-25 22:30:00,
2013-03-25 18:35:00,39.5,31.6,29.49,NNE,13,14.0,27.0,73,0.00,,---,0.00,5.00,VWS V14.01,2013-03-25 22:35:00,
2013-03-25 18:40:00,39.4,31.1,29.49,NNE,17,18.0,27.0,72,0.00,,---,0.00,5.00,VWS V14.01,2013-03-25 22:40:00,
2013-03-25 18:45:00,39.4,31.8,29.49,NNE,28,15.0,27.0,74,0.00,,---,0.00,0.00,VWS V14.01,2013-03-25 22:45:00,
2013-03-25 18:50:00,39.3,32.0,29.50,NNE,28,21.0,21.0,75,0.00,,---,0.00,0.00,VWS V14.01,2013-03-25 22:50:00,
2013-03-25 18:55:00,39.3,31.7,29.49,NE,35,19.0,25.0,74,0.00,,---,0.00,0.00,VWS V14.01,2013-03-25 22:55:00,
2013-03-25 19:00:00,39.3,31.7,29.49,NE,39,12.0,25.0,74,0.00,,---,0.00,0.00,VWS V14.01,2013-03-25 23:00:00,
2013-03-25 19:05:00,39.3,31.7,29.49,NE,54,19.0,27.0,74,0.00,,---,0.00,0.00,VWS V14.01,2013-03-25 23:05:00,
2013-03-25 19:10:00,39.3,31.7,29.49,ENE,68,21.0,27.0,74,0.00,,---,0.00,0.00,VWS V14.01,2013-03-25 23:10:00,
2013-03-25 19:15:00,39.3,31.4,29.49,NE,40,14.0,27.0,73,0.00,,---,0.00,0.00,VWS V14.01,2013-03-25 23:15:00,
2013-03-25 19:20:00,39.3,31.7,29.49,ENE,66,15.0,21.0,74,0.00,,---,0.00,0.00,VWS V14.01,2013-03-25 23:20:00,
2013-03-25 19:25:00,39.3,31.4,29.49,NE,47,11.0,28.0,73,0.00,,---,0.00,0.00,VWS V14.01,2013-03-25 23:25:00,
2013-03-25 19:30:00,39.3,31.4,29.49,NE,42,13.0,28.0,73,0.00,,---,0.00,0.00,VWS V14.01,2013-03-25 23:30:00,
2013-03-25 19:35:00,39.3,31.7,29.49,North,5,15.0,23.0,74,0.00,,---,0.00,0.00,VWS V14.01,2013-03-25 23:35:00,
2013-03-25 19:40:00,39.3,32.0,29.50,NNE,30,17.0,23.0,75,0.00,,---,0.00,0.00,VWS V14.01,2013-03-25 23:40:00,
2013-03-25 19:45:00,39.2,32.6,29.50,NNE,24,18.0,23.0,77,0.00,,---,0.00,0.00,VWS V14.01,2013-03-25 23:45:00,
2013-03-25 19:50:00,39.1,32.5,29.50,NE,39,14.0,18.0,77,0.00,,---,0.00,0.00,VWS V14.01,2013-03-25 23:50:00,
2013-03-25 19:55:00,38.9,32.6,29.50,NNE,29,18.0,18.0,78,0.00,,---,0.00,0.00,VWS V14.01,2013-03-25 23:55:00,
2013-03-25 20:00:00,38.7,32.8,29.50,NE,56,17.0,22.0,79,0.00,,---,0.00,0.00,VWS V14.01,2013-03-26 00:00:00,
2013-03-25 20:05:00,38.8,33.2,29.50,NNE,30,16.0,16.0,80,0.00,,---,0.00,0.00,VWS V14.01,2013-03-26 00:05:00,
2013-03-25 20:10:00,38.8,32.9,29.50,ENE,57,10.0,17.0,79,0.00,,---,0.00,0.00,VWS V14.01,2013-03-26 00:10:00,
2013-03-25 20:15:00,38.8,33.2,29.50,North,360,11.0,17.0,80,0.00,,---,0.00,0.00,VWS V14.01,2013-03-26 00:15:00,
2013-03-25 20:20:00,38.7,33.1,29.50,NNE,18,13.0,19.0,80,0.00,,---,0.00,0.00,VWS V14.01,2013-03-26 00:20:00,
2013-03-25 20:25:00,38.6,33.0,29.50,NNE,15,9.0,19.0,80,0.00,,---,0.00,0.00,VWS V14.01,2013-03-26 00:25:00,
2013-03-25 20:30:00,38.6,33.3,29.50,NE,34,12.0,20.0,81,0.00,,---,0.00,0.00,VWS V14.01,2013-03-26 00:30:00,
2013-03-25 20:35:00,38.6,33.3,29.50,NE,55,12.0,18.0,81,0.00,,---,0.00,0.00,VWS V14.01,2013-03-26 00:35:00,
2013-03-25 20:40:00,38.5,33.2,29.50,NNE,30,6.0,18.0,81,0.00,,---,0.00,0.00,VWS V14.01,2013-03-26 00:40:00,
2013-03-25 20:45:00,38.5,33.5,29.50,North,355,6.0,19.0,82,0.00,,---,0.00,0.00,VWS V14.01,2013-03-26 00:45:00,
2013-03-25 20:50:00,38.4,33.4,29.50,North,5,17.0,17.0,82,0.00,,---,0.00,0.00,VWS V14.01,2013-03-26 00:50:00,
2013-03-25 20:55:00,38.3,33.6,29.50,NNE,22,12.0,21.0,83,0.00,,---,0.00,0.00,VWS V14.01,2013-03-26 00:55:00,
2013-03-25 21:00:00,37.6,33.5,29.50,North,5,9.0,21.0,85,0.00,,---,0.00,0.00,VWS V14.01,2013-03-26 01:00:00,
2013-03-25 21:05:00,36.8,33.3,29.50,NNE,16,13.0,22.0,87,0.02,,---,0.02,0.00,VWS V14.01,2013-03-26 01:05:00,
2013-03-25 21:10:00,36.5,33.6,29.50,NNE,23,19.0,22.0,89,0.02,,---,0.02,0.00,VWS V14.01,2013-03-26 01:10:00,
2013-03-25 21:15:00,36.8,33.9,29.50,NE,47,10.0,22.0,89,0.02,,---,0.02,0.00,VWS V14.01,2013-03-26 01:15:00,
2013-03-25 21:21:00,36.9,34.0,29.50,NNE,19,13.0,24.0,89,0.02,,---,0.02,0.00,VWS V14.01,2013-03-26 01:21:00,
2013-03-25 21:26:00,36.9,34.0,29.49,NNE,18,16.0,24.0,89,0.02,,---,0.02,0.00,VWS V14.01,2013-03-26 01:26:00,
2013-03-25 21:30:00,37.0,34.1,29.49,North,9,12.0,24.0,89,0.02,,,0.02,0.00,VWS V14.01,2013-03-26 01:30:00,
2013-03-25 21:31:00,37.0,34.1,29.49,North,355,10.0,24.0,89,0.02,,---,0.02,0.00,VWS V14.01,2013-03-26 01:31:00,
2013-03-25 21:36:00,37.0,34.1,29.49,NE,48,23.0,23.0,89,0.02,,---,0.02,0.00,VWS V14.01,2013-03-26 01:36:00,
2013-03-25 21:41:00,37.2,33.7,29.49,North,360,12.0,23.0,87,0.02,,---,0.02,0.00,VWS V14.01,2013-03-26 01:41:00,
2013-03-25 21:45:00,38.5,33.5,29.50,North,350,10.0,19.0,82,0.00,,,0.00,0.00,VWS V14.01,2013-03-26 01:45:00,
2013-03-25 21:46:00,37.2,33.7,29.49,North,5,21.0,27.0,87,0.02,,---,0.02,0.00,VWS V14.01,2013-03-26 01:46:00,
2013-03-25 21:51:00,37.0,33.5,29.49,NNE,30,14.0,22.0,87,0.02,,---,0.02,0.00,VWS V14.01,2013-03-26 01:51:00,
2013-03-25 21:56:00,36.6,33.4,29.49,NNE,15,7.0,22.0,88,0.02,,---,0.02,0.00,VWS V14.01,2013-03-26 01:56:00,
2013-03-25 22:00:00,36.4,33.5,29.49,North,355,13.0,22.0,89,0.02,,,0.02,0.00,VWS V14.01,2013-03-26 02:00:00,
2013-03-25 22:01:00,36.4,33.5,29.49,NE,41,10.0,16.0,89,0.02,,---,0.02,0.00,VWS V14.01,2013-03-26 02:01:00,
2013-03-25 22:06:00,36.5,33.6,29.49,North,5,12.0,20.0,89,0.02,,---,0.02,0.00,VWS V14.01,2013-03-26 02:06:00,
2013-03-25 22:11:00,36.8,33.9,29.49,NNE,25,10.0,20.0,89,0.02,,---,0.02,0.00,VWS V14.01,2013-03-26 02:11:00,
2013-03-25 22:15:00,36.8,33.9,29.49,NE,55,14.0,20.0,89,0.02,,,0.02,0.00,VWS V14.01,2013-03-26 02:15:00,
2013-03-25 22:16:00,36.8,33.9,29.49,North,5,12.0,20.0,89,0.00,,---,0.02,0.00,VWS V14.01,2013-03-26 02:16:00,
2013-03-25 22:21:00,36.8,33.9,29.49,NNE,17,13.0,20.0,89,0.00,,---,0.02,0.00,VWS V14.01,2013-03-26 02:21:00,
2013-03-25 22:26:00,36.9,34.0,29.49,NNE,17,14.0,20.0,89,0.00,,---,0.02,0.00,VWS V14.01,2013-03-26 02:26:00,
2013-03-25 22:30:00,37.0,34.1,29.49,North,9,12.0,24.0,89,0.02,,,0.02,0.00,VWS V14.01,2013-03-26 02:30:00,
2013-03-25 22:31:00,37.1,34.2,29.49,North,360,10.0,12.0,89,0.00,,---,0.02,0.00,VWS V14.01,2013-03-26 02:31:00,
2013-03-25 22:36:00,37.4,33.9,29.49,NNE,33,6.0,18.0,87,0.00,,---,0.02,0.00,VWS V14.01,2013-03-26 02:36:00,
2013-03-25 22:41:00,37.5,34.0,29.48,NNW,339,7.0,21.0,87,0.00,,---,0.02,0.00,VWS V14.01,2013-03-26 02:41:00,
2013-03-25 22:45:00,37.2,33.7,29.49,North,5,21.0,27.0,87,0.02,,,0.02,0.00,VWS V14.01,2013-03-26 02:45:00,
2013-03-25 22:47:00,37.7,33.9,29.48,North,5,12.0,16.0,86,0.00,,---,0.02,0.00,VWS V14.01,2013-03-26 02:47:00,
2013-03-25 22:52:00,37.7,33.6,29.49,NNE,22,12.0,17.0,85,0.00,,---,0.02,0.00,VWS V14.01,2013-03-26 02:52:00,
2013-03-25 22:57:00,37.7,33.9,29.49,NNE,18,10.0,17.0,86,0.00,,---,0.02,0.00,VWS V14.01,2013-03-26 02:57:00,
2013-03-25 23:00:00,36.4,33.5,29.49,North,355,13.0,22.0,89,0.02,,,0.02,0.00,VWS V14.01,2013-03-26 03:00:00,
2013-03-25 23:02:00,37.7,33.9,29.49,North,360,15.0,15.0,86,0.00,,---,0.02,0.00,VWS V14.01,2013-03-26 03:02:00,
2013-03-25 23:07:00,37.7,33.9,29.48,NNW,347,6.0,15.0,86,0.00,,---,0.02,0.00,VWS V14.01,2013-03-26 03:07:00,
2013-03-25 23:12:00,37.7,33.6,29.48,North,355,9.0,15.0,85,0.00,,---,0.02,0.00,VWS V14.01,2013-03-26 03:12:00,
2013-03-25 23:15:00,36.8,33.9,29.49,NE,55,14.0,20.0,89,0.02,,,0.02,0.00,VWS V14.01,2013-03-26 03:15:00,
2013-03-25 23:17:00,37.8,33.7,29.48,NNE,32,16.0,16.0,85,0.00,,---,0.02,0.00,VWS V14.01,2013-03-26 03:17:00,
2013-03-25 23:22:00,38.0,33.6,29.48,North,5,10.0,19.0,84,0.00,,---,0.02,0.00,VWS V14.01,2013-03-26 03:22:00,
2013-03-25 23:27:00,38.2,33.2,29.48,NNW,336,16.0,19.0,82,0.00,,---,0.02,0.00,VWS V14.01,2013-03-26 03:27:00,
2013-03-25 23:30:00,38.3,33.0,29.48,NNW,346,10.0,19.0,81,0.00,,,0.02,0.00,VWS V14.01,2013-03-26 03:30:00,
2013-03-25 23:32:00,38.4,33.1,29.48,NNW,334,9.0,18.0,81,0.00,,---,0.02,0.00,VWS V14.01,2013-03-26 03:32:00,
2013-03-25 23:37:00,38.4,33.1,29.48,North,5,12.0,19.0,81,0.00,,---,0.02,0.00,VWS V14.01,2013-03-26 03:37:00,
2013-03-25 23:42:00,38.5,32.9,29.48,North,360,12.0,19.0,80,0.00,,---,0.02,0.00,VWS V14.01,2013-03-26 03:42:00,
2013-03-25 23:45:00,37.7,33.9,29.48,NNE,30,9.0,22.0,86,0.00,,,0.02,0.00,VWS V14.01,2013-03-26 03:45:00,
2013-03-25 23:47:00,38.6,32.7,29.48,NNW,331,9.0,16.0,79,0.00,,---,0.02,0.00,VWS V14.01,2013-03-26 03:47:00,
2013-03-25 23:52:00,38.6,33.0,29.49,NNE,16,4.0,20.0,80,0.00,,---,0.02,0.00,VWS V14.01,2013-03-26 03:52:00,
2013-03-25 23:57:00,38.6,33.0,29.48,North,5,11.0,20.0,80,0.00,,---,0.02,0.00,VWS V14.01,2013-03-26 03:57:00,